Location: Dackenheim
(49.5215°N, 8.1854°E)
Time: 03:18:53
(UTC+00:00)

UWE-3 - Pass Details

Date: 15 March 2026
Orbit: 543 x 612 km, 97.9° (Epoch: 12 April)

Event Time Altitude Azimuth Distance (km) Brightness Sun altitude
Rises 02:24:57 0° 13° (NNE) 2,891 ? -30.6°
Reaches altitude 10° 02:27:09 10° 14° (NNE) 1,978 ? -30.4°
Enters shadow 02:29:25 31° 15° (NNE) 1,088 ? -30.1°
